This demonstration page uses our WeatherBlox Daily Observations layout. Learn more.

Left ArrowRight Arrow

44.31136, -96.79839

Hourly Observations for August 14, 2022

Temp ( °F °C ) Dew Point ( °F °C ) Humidity (%) Winds ( mph kmh ) Pressure ( in mb ) Visibility ( mi km ) Precip ( " mm )
12:56 am 00:56 Clear 62 16.7 62 16.7 100 100 E 5 7 30.09 1019 10 16 0.00 0.00
1:56 am 01:56 Clear 60 15.6 60 15.6 100 100 SSE 5 7 30.09 1019 10 16 0.00 0.00
2:56 am 02:56 Clear 57 13.9 57 13.9 100 100 Calm 30.09 1019 10 16 0.00 0.00
3:56 am 03:56 Clear 59 15 59 15 100 100 ESE 5 7 30.09 1019 10 16 0.00 0.00
4:56 am 04:56 Clear 57 13.9 57 13.9 100 100 Calm 30.09 1019 10 16 0.00 0.00
5:15 am 05:15 Clear with Mist and Fog 55 13 55 13 100 100 Calm 30.06 1018 2 2 0.00 0.00
5:31 am 05:31 Mostly Clear with Mist and Fog 55 13 55 13 100 100 Calm 30.06 1018 1 1 0.00 0.00
5:35 am 05:35 Clear with Mist and Fog 55 13 55 13 100 100 Calm 30.06 1018 1 2 0.00 0.00
5:56 am 05:56 Clear with Mist and Fog 55 12.8 55 12.8 100 100 Calm 30.09 1019 5 8 0.00 0.00
6:56 am 06:56 Mostly Sunny 54 12.2 54 12.2 100 100 WSW 5 7 30.10 1019 8 13 0.00 0.00
7:00 am 07:00 Partly Cloudy with Mist and Fog 54 12 54 12 100 100 WSW 7 11 30.08 1019 1 1 0.00 0.00
7:08 am 07:08 Mostly Cloudy with Fog 55 13 55 13 100 100 WSW 3 6 30.08 1019 0 0 0.00 0.00
7:34 am 07:34 Mostly Cloudy with Mist and Fog 59 15 59 15 100 100 Calm 30.10 1019 4 6 0.00 0.00
7:46 am 07:46 Mostly Cloudy 57 14 57 14 100 100 Calm 30.09 1019 8 13 0.00 0.00
7:56 am 07:56 Partly Cloudy 59 15 59 15 100 100 Calm 30.14 1021 9 14 0.00 0.00
8:47 am 08:47 Mostly Cloudy 68 20 59 15 73 73 SSE 3 6 30.05 1018 10 16 0.00 0.00
8:56 am 08:56 Partly Cloudy 66 18.9 60 15.6 81 81 SE 6 9 30.11 1020 10 16 0.00 0.00
9:56 am 09:56 Sunny 68 20 60 15.6 76 76 ESE 9 15 30.10 1019 10 16 0.00 0.00
10:56 am 10:56 Partly Cloudy 70 21.1 60 15.6 71 71 SE 8 13 30.10 1019 10 16 0.00 0.00
11:56 am 11:56 Sunny 72 22.2 60 15.6 66 66 ESE 12 19 30.09 1019 10 16 0.00 0.00
12:56 pm 12:56 Sunny 75 23.9 61 16.1 62 62 ESE 12 19 30.07 1018 10 16 0.00 0.00
1:56 pm 13:56 Sunny 74 23.3 61 16.1 64 64 SE 10 17 30.08 1019 10 16 0.00 0.00
2:56 pm 14:56 Sunny 77 25 62 16.7 60 60 SSW 13 20 30.06 1018 10 16 0.00 0.00
3:56 pm 15:56 Sunny 76 24.4 62 16.7 62 62 SSE 9 15 30.07 1018 10 16 0.00 0.00
4:56 pm 16:56 Sunny 75 23.9 63 17.2 66 66 S 5 7 30.08 1019 10 16 0.00 0.00
5:56 pm 17:56 Sunny 74 23.3 64 17.8 71 71 SSE 9 15 30.07 1018 10 16 0.00 0.00
6:56 pm 18:56 Sunny 73 22.8 65 18.3 76 76 SSE 6 9 30.07 1018 10 16 0.00 0.00
7:56 pm 19:56 Sunny 71 21.7 65 18.3 81 81 S 7 11 30.06 1018 10 16 0.00 0.00
8:56 pm 20:56 Clear 68 20 66 18.9 93 93 SE 5 7 30.05 1018 10 16 0.00 0.00
9:56 pm 21:56 Clear 67 19.4 65 18.3 93 93 SSE 10 17 30.05 1018 10 16 0.00 0.00
10:56 pm 22:56 Clear 66 18.9 65 18.3 96 96 SE 6 9 30.07 1018 10 16 0.00 0.00
11:56 pm 23:56 Clear 65 18.3 65 18.3 100 100 SSE 8 13 30.06 1018 10 16 0.00 0.00

Powered by AerisWeather